Theta_e
340 342 343 349 360 356 362 358 353 354 354 347 346 347 346 349 360 371 352 352 356 354 353 351 349 350 348 347 347 345 345 344 344 342 342 343 339 336 334 333 331 332 331 332 330 325 322 320 319
343 347 347 351 359 361 357 352 354 351 350 344 346 349 348 349 354 355 354 354 355 353 351 351 347 348 347 345 345 344 344 343 344 343 340 337 335 332 327 323 321 322 325 328 324 318 316 316 316
342 348 351 355 352 355 359 350 349 347 345 346 341 339 344 348 349 355 354 357 354 352 352 350 347 345 345 345 344 343 342 342 342 341 338 333 328 321 317 317 321 324 324 323 319 317 316 315 314
350 351 350 358 350 346 347 345 343 343 343 344 343 347 345 346 346 354 353 357 355 352 351 348 346 346 345 343 342 342 342 342 341 339 331 325 321 318 320 323 324 324 324 324 321 319 316 314 314
350 351 354 347 345 344 343 343 343 343 344 344 342 342 349 348 351 352 351 353 354 351 352 346 343 344 345 345 343 342 341 338 336 329 325 320 319 320 323 324 324 326 326 325 324 322 321 321 321
351 351 358 352 344 342 342 341 341 341 340 342 343 344 351 349 350 351 350 350 348 353 352 349 343 343 344 343 344 340 335 332 334 328 324 320 319 323 324 325 324 323 323 323 323 322 322 322 321
353 350 352 347 343 343 342 340 342 340 339 340 343 352 351 350 349 348 348 348 347 350 352 348 346 344 343 343 342 334 330 330 328 324 321 320 320 322 323 323 323 323 324 324 324 323 323 322 322
342 350 352 351 347 347 342 345 344 343 346 341 345 353 355 350 349 348 348 348 346 347 349 346 344 346 347 344 336 331 327 324 322 321 321 321 322 322 323 323 327 326 325 324 324 323 323 323 323
342 354 358 354 347 345 343 344 341 342 344 342 344 349 350 348 347 348 348 348 346 345 348 346 346 348 346 344 339 329 322 322 322 321 322 323 327 330 330 331 331 324 324 323 324 324 325 326 327
347 351 351 347 348 348 343 344 342 341 344 345 349 348 349 347 347 347 347 347 346 345 345 346 349 348 346 344 338 336 333 330 326 332 333 331 335 334 332 330 328 329 326 326 330 329 328 329 333
349 352 346 345 345 346 343 342 342 342 344 346 352 341 348 349 347 346 346 346 346 345 346 348 348 346 345 343 341 335 334 332 335 336 337 336 335 335 334 334 332 332 332 331 334 334 334 333 331
343 345 344 346 344 342 340 339 342 342 346 344 348 347 351 350 349 347 347 346 346 345 344 347 347 345 343 343 340 337 338 337 338 338 336 336 336 335 335 335 333 335 334 333 334 333 332 333 332
341 339 344 343 339 339 337 337 338 341 343 343 344 343 351 350 350 349 347 346 347 347 347 346 347 347 345 343 341 337 337 337 335 336 337 336 334 334 335 335 334 334 334 334 335 334 333 334 334
338 336 338 339 338 338 338 336 339 341 342 345 346 346 348 350 350 350 349 347 347 348 348 346 346 346 345 342 341 334 336 335 332 334 334 330 332 335 333 334 333 333 329 330 336 336 332 331 331
336 336 338 339 339 336 336 335 345 338 339 345 347 349 350 351 350 351 350 348 347 349 348 349 348 348 345 345 341 337 332 332 328 330 331 329 332 333 332 334 334 333 333 335 333 329 329 331 330
335 339 344 341 340 341 338 338 341 338 337 340 347 349 351 352 350 350 349 349 348 348 348 349 349 349 348 347 343 338 335 332 333 332 330 330 331 331 336 335 333 334 334 331 329 330 328 327 327
341 339 342 339 340 340 340 339 341 338 339 337 343 348 350 351 350 350 349 350 349 349 348 347 347 348 348 346 345 343 340 340 337 336 333 332 332 335 335 335 332 331 329 328 325 324 324 323 319
340 340 337 341 340 338 341 340 343 343 340 340 339 345 349 352 352 349 348 349 349 348 348 347 348 347 346 344 344 343 341 341 339 337 336 337 334 334 332 332 329 328 327 322 320 323 321 316 317
336 339 339 338 338 340 338 337 335 338 342 342 341 347 347 350 350 348 347 347 347 347 346 346 347 344 342 344 343 342 341 341 339 337 337 334 332 332 330 329 324 324 321 318 319 320 317 317 316
338 339 335 336 336 336 335 336 336 335 337 339 338 348 348 350 347 348 347 347 347 348 347 347 346 343 342 340 340 340 340 339 337 335 334 333 330 330 328 324 322 320 317 315 316 317 317 316 315
332 333 334 335 334 334 333 334 337 340 339 339 342 344 346 348 350 348 346 347 346 346 345 344 343 343 340 340 342 340 337 336 336 333 333 330 329 325 323 321 318 317 317 317 316 316 316 316 315
332 331 331 332 332 332 332 335 337 340 342 342 343 342 341 348 349 347 346 345 346 345 342 342 342 342 343 342 339 338 338 335 334 334 331 330 326 322 321 317 317 317 316 318 317 317 316 315 315
331 330 331 331 332 333 333 336 337 339 341 341 345 338 338 344 348 347 345 344 343 344 343 342 341 341 341 342 339 336 335 332 332 331 326 323 324 321 320 319 318 316 317 317 317 317 315 315 314
331 332 335 334 335 343 338 339 339 341 342 340 339 338 340 341 346 347 344 343 343 343 342 340 340 340 339 339 336 329 326 325 328 325 318 322 322 322 320 319 318 315 317 317 318 317 316 315 314
333 335 337 338 338 341 340 341 341 344 342 339 338 343 343 346 346 345 343 342 342 342 342 342 340 339 336 334 328 327 327 326 328 322 319 315 317 319 320 319 317 315 317 317 318 318 317 314 314
334 335 336 339 339 340 335 340 342 340 340 339 339 349 350 348 346 344 343 341 339 341 341 340 339 335 331 326 327 327 329 329 324 321 318 316 318 318 317 318 317 315 316 317 317 318 317 317 315
332 334 335 337 339 346 341 341 345 344 340 337 336 342 350 344 345 344 341 338 337 336 334 335 329 327 325 327 328 327 327 325 322 319 317 320 318 318 319 318 317 316 316 316 317 317 317 317 317
335 336 341 342 351 351 343 343 349 346 340 338 340 341 344 346 343 341 337 334 333 331 327 326 326 326 327 327 327 328 327 324 321 319 319 319 319 319 320 319 316 316 316 316 317 316 315 315 316
334 334 337 341 343 353 352 351 343 342 341 344 340 339 342 346 341 335 333 332 329 327 326 325 327 326 326 325 326 326 325 323 320 319 318 318 320 320 319 319 316 316 316 316 316 316 316 316 315
333 336 342 345 343 346 346 349 343 339 340 338 337 343 342 338 335 333 331 328 328 326 327 327 327 327 327 327 326 326 325 324 322 320 318 319 320 320 320 319 317 316 316 316 316 316 316 315 315
Wind_Speed
11 11 11 14 4 1 2 7 12 11 10 13 8 7 15 17 9 6 16 11 25 25 23 20 19 17 17 16 13 12 12 12 10 9 8 7 7 8 8 8 7 6 5 5 4 4 5 5 6
10 17 15 7 6 4 4 1 11 7 8 7 6 6 14 16 16 14 13 17 25 26 20 19 18 16 14 14 13 13 12 11 9 9 8 8 8 7 6 5 4 4 3 4 4 4 5 5 6
11 15 8 4 4 3 6 22 13 12 5 7 10 13 9 11 12 10 19 26 24 24 21 19 18 16 14 14 13 12 11 10 10 10 9 8 6 5 5 5 5 4 3 4 4 4 5 5 5
10 7 8 11 6 7 6 9 10 10 8 4 10 16 10 11 8 13 20 26 22 22 24 18 20 18 17 15 14 12 12 11 10 10 8 6 6 5 5 6 5 5 4 4 4 4 4 4 4
22 7 8 6 9 12 10 6 3 8 7 9 15 16 10 11 16 19 21 24 22 23 25 21 20 18 16 15 13 13 12 12 10 8 7 7 7 7 6 6 6 6 5 4 3 4 4 3 4
5 5 5 10 9 9 7 9 6 9 12 5 17 17 9 15 17 17 20 21 19 25 23 20 19 17 15 14 13 13 11 10 10 8 7 5 6 7 6 5 5 4 3 2 2 3 4 5 6
8 3 7 9 11 14 11 11 7 10 10 7 7 14 11 13 17 19 20 19 17 25 23 21 18 16 15 14 13 11 11 11 10 9 7 6 6 6 6 5 3 1 1 2 3 4 6 7 8
7 4 14 17 9 4 9 8 16 4 14 7 7 6 10 18 20 20 19 18 16 23 26 23 23 20 19 15 14 12 11 10 9 8 8 7 7 8 6 5 4 1 4 6 6 7 9 10 11
15 5 2 18 0 11 15 7 8 5 5 7 9 14 21 24 21 19 18 18 16 17 29 28 24 23 20 17 14 13 12 10 9 8 7 7 9 8 7 4 8 7 6 7 7 10 12 13 17
7 3 4 10 18 26 5 13 15 6 9 9 21 18 22 23 21 18 16 16 17 14 13 28 26 21 22 17 16 14 12 11 10 7 4 4 10 10 10 7 9 9 8 10 10 14 14 15 17
7 8 14 19 31 30 11 9 3 15 12 19 20 12 13 15 16 14 15 16 18 16 18 23 24 21 19 24 15 20 16 16 9 13 4 6 2 3 6 7 13 11 12 11 12 7 13 10 16
3 24 24 9 28 16 7 7 12 20 2 3 20 22 21 14 12 12 12 12 20 18 12 25 22 18 18 22 13 17 22 20 16 11 8 4 4 1 5 8 7 8 9 15 17 13 18 17 17
10 7 28 12 4 11 8 10 3 7 6 3 5 5 14 11 13 13 8 6 23 19 14 9 19 16 14 10 8 4 20 17 12 12 12 7 6 3 8 6 9 12 13 15 21 21 19 20 20
5 9 8 6 9 4 4 12 3 23 25 4 3 4 10 11 10 13 9 8 10 20 15 8 18 16 15 13 11 8 16 17 14 16 12 8 4 8 8 7 10 14 17 18 18 17 16 19 19
10 13 8 9 21 3 5 14 9 13 13 1 3 2 7 8 10 12 10 11 10 15 14 13 13 14 15 13 9 8 10 12 11 12 12 10 10 7 8 9 11 14 12 13 15 19 22 16 15
16 12 12 12 25 20 14 10 10 13 11 10 14 9 8 8 9 12 11 12 12 13 14 14 11 12 14 10 11 11 11 7 6 8 11 11 7 8 6 8 12 8 10 12 16 15 14 18 20
18 13 2 5 4 10 13 20 9 5 11 9 8 12 11 11 11 13 13 11 11 9 11 11 14 13 12 12 9 9 10 9 10 10 7 7 6 7 7 9 8 3 10 11 13 16 16 17 22
17 22 10 8 5 14 22 18 14 17 12 9 9 11 12 16 13 15 14 14 9 6 6 10 11 10 12 11 10 10 9 9 9 6 5 4 5 5 4 6 3 5 9 13 16 12 15 19 20
21 20 27 18 19 16 19 15 9 10 15 9 5 9 10 14 17 16 11 11 12 12 10 13 14 13 13 13 13 11 10 8 6 5 5 5 3 4 2 5 11 7 12 13 10 12 15 16 19
21 25 18 18 17 11 13 19 12 7 8 7 13 13 12 19 14 17 13 13 13 14 14 15 15 11 11 12 9 8 9 9 9 8 6 4 3 3 6 5 9 11 10 13 13 13 14 15 18
15 15 12 16 19 21 18 16 10 17 4 16 24 34 13 18 17 15 16 16 15 14 15 17 14 9 8 9 8 8 9 8 6 6 7 6 4 5 4 6 8 10 12 12 12 12 13 15 17
15 16 18 17 17 16 18 15 2 12 10 11 19 10 25 18 20 16 17 15 18 16 15 15 14 9 7 4 6 6 6 7 8 10 11 9 6 4 1 4 7 8 10 9 11 13 12 14 15
16 19 21 22 19 20 22 8 10 13 4 9 19 21 23 11 20 17 17 20 19 17 16 14 12 8 6 4 4 3 5 10 8 13 6 3 5 3 4 1 5 7 8 9 10 11 13 11 13
13 16 20 20 15 8 10 6 5 7 8 10 13 18 16 24 20 18 23 21 20 18 15 12 10 9 7 7 9 12 14 11 11 9 3 5 2 8 7 2 4 7 8 9 9 11 12 11 10
14 15 10 14 11 10 7 6 8 6 16 25 2 22 23 19 19 17 17 18 22 22 19 18 14 11 11 10 9 10 9 7 5 3 8 6 5 7 5 4 7 7 9 9 10 12 13 10 12
12 13 11 19 12 18 12 6 6 13 16 19 21 20 20 12 10 16 15 18 20 27 22 22 19 15 11 9 9 8 4 3 10 5 3 3 4 6 9 3 7 7 9 10 11 12 15 11 10
12 13 18 16 15 14 13 14 20 19 20 18 23 12 22 24 15 17 14 18 17 18 14 24 19 15 12 11 10 6 5 4 7 5 2 3 3 5 8 7 8 9 9 10 11 12 17 14 10
18 7 13 6 9 11 11 17 5 11 10 14 22 28 18 19 21 12 13 16 16 16 14 20 17 15 11 10 9 10 8 3 2 2 4 4 5 6 8 8 9 10 10 11 11 12 16 18 19
16 14 7 6 3 4 9 6 5 8 2 8 12 20 24 19 16 15 14 19 18 19 15 12 13 12 11 9 10 8 7 2 2 3 5 6 7 8 9 9 9 11 12 12 11 14 15 17 17
14 9 12 9 13 6 10 5 9 9 5 6 8 14 12 16 12 11 17 19 17 20 20 16 13 9 8 7 9 7 7 4 0 5 7 8 9 10 11 11 9 11 13 13 12 17 15 18 19
Wind_Direction
266 259 238 248 241 346 301 205 77 53 355 69 58 45 71 53 25 108 150 140 129 135 147 147 151 149 142 139 139 129 132 132 133 137 146 134 110 100 94 86 82 70 65 54 43 15 4 348 335
265 270 252 274 250 135 296 298 116 118 108 105 146 166 102 69 84 119 128 132 126 135 147 155 162 155 150 144 145 146 146 142 131 147 133 119 114 109 101 93 78 71 52 45 39 23 8 357 340
274 269 268 271 215 154 144 251 114 92 154 221 114 65 37 85 83 111 128 129 131 137 146 156 155 156 153 153 150 146 147 141 133 131 129 128 124 121 106 100 91 86 68 45 28 18 359 344 336
251 227 246 259 71 172 166 84 100 138 109 286 112 101 94 33 94 123 141 139 140 144 154 164 159 156 158 159 155 150 141 137 137 137 137 134 126 117 104 97 91 86 76 69 49 28 16 356 348
253 263 251 230 182 80 98 135 160 91 137 136 104 88 100 83 106 127 146 155 145 151 151 158 164 163 159 149 147 144 147 146 146 148 149 146 139 134 120 101 99 93 86 77 60 41 30 16 355
68 293 233 246 146 146 155 126 155 105 95 161 113 105 96 127 128 137 148 154 157 139 144 151 163 161 153 150 153 154 155 151 154 152 154 155 151 144 132 123 120 114 96 67 24 2 351 340 326
123 2 289 319 171 139 158 171 157 155 169 108 147 110 128 145 142 148 153 157 162 146 144 151 152 156 158 167 165 163 164 160 156 158 160 169 166 168 163 162 143 105 10 324 315 319 312 305 298
118 85 340 310 98 305 92 37 330 66 151 132 92 105 149 142 155 152 156 158 165 151 153 158 160 162 165 176 178 171 167 169 166 165 173 174 176 187 173 181 178 275 287 281 285 287 293 292 291
137 82 188 270 215 211 115 106 286 244 115 210 127 150 134 149 158 158 160 162 175 166 164 160 160 166 175 168 174 174 171 172 174 171 175 187 204 225 198 225 229 278 271 272 282 279 287 296 299
88 64 160 336 317 302 178 154 221 221 185 10 7 60 129 151 157 167 170 168 171 163 148 149 158 164 170 167 177 169 173 174 174 175 215 227 246 204 169 228 262 281 266 265 280 278 285 292 305
126 178 155 222 231 258 210 132 40 352 277 139 190 168 192 165 160 174 178 179 166 149 134 148 156 163 163 166 169 178 182 181 188 195 181 222 128 244 273 274 260 265 268 273 301 302 292 292 313
160 159 186 223 224 247 293 124 158 193 78 101 139 166 186 163 160 178 187 185 142 148 163 153 156 165 168 178 173 191 174 169 161 179 189 202 189 265 310 303 322 327 338 319 327 316 310 309 316
337 359 191 202 196 249 351 281 19 86 68 48 63 145 148 158 163 169 182 150 136 142 155 210 162 167 180 169 184 143 161 161 161 155 181 210 205 254 298 319 311 318 311 310 317 320 306 313 318
262 323 316 287 309 309 255 297 120 23 342 75 331 117 141 148 154 146 154 157 146 144 155 185 155 162 164 183 181 156 156 173 184 194 213 216 247 265 277 309 301 284 301 298 314 317 323 312 311
307 283 226 336 341 312 1 283 108 140 192 240 174 149 111 139 151 143 158 148 155 148 160 142 137 156 162 196 172 183 176 189 216 228 235 241 239 266 281 297 300 306 314 314 313 316 319 320 316
264 56 19 9 353 321 330 283 139 172 209 227 166 153 134 131 149 142 147 144 156 145 148 176 172 171 178 186 199 190 202 233 220 225 249 248 227 263 267 288 293 314 313 306 310 321 348 337 336
342 336 251 339 338 349 297 280 119 183 218 228 179 162 158 154 141 131 142 145 147 150 162 171 185 176 176 185 198 197 197 203 222 231 227 212 232 246 279 285 310 303 322 341 7 353 346 345 335
298 284 262 195 223 221 279 270 162 191 224 244 220 170 171 160 148 143 152 153 147 127 138 138 137 156 163 165 174 184 204 209 211 208 195 189 231 261 266 290 344 349 348 348 341 335 335 338 324
225 250 261 214 218 206 211 267 299 215 215 214 294 165 174 167 140 142 133 142 143 130 146 143 138 154 159 162 171 174 178 181 173 172 147 197 189 184 301 357 7 1 355 344 342 351 341 330 331
237 246 295 325 295 264 267 263 269 285 231 154 167 222 177 128 138 134 145 149 126 130 140 142 145 157 168 165 165 167 177 175 161 155 153 137 116 88 55 25 1 360 349 347 1 357 345 334 332
277 282 268 283 305 294 278 283 284 348 297 45 17 336 173 146 141 145 156 137 141 137 147 144 146 141 118 123 132 127 129 146 162 166 155 139 113 54 49 28 4 352 347 342 355 349 343 326 333
286 317 321 294 302 299 315 298 312 44 41 63 81 341 323 163 150 152 143 149 129 144 149 146 146 135 120 120 145 163 185 169 182 163 146 151 140 130 95 33 355 344 333 348 348 336 341 336 335
309 308 304 301 290 287 285 285 322 329 251 182 167 168 220 251 150 151 142 148 148 151 143 148 136 137 134 120 121 174 110 162 154 131 107 161 198 185 181 62 354 337 331 337 337 343 334 339 336
291 296 295 284 296 329 282 239 290 317 312 289 206 198 191 242 135 139 135 136 129 141 144 151 160 148 136 118 93 72 68 58 65 51 17 52 212 171 140 65 356 335 324 328 326 329 328 324 332
308 316 296 296 295 305 39 155 237 111 210 250 123 186 209 155 138 134 139 154 165 155 155 156 147 145 127 120 106 84 70 64 91 56 42 13 347 74 67 17 342 325 314 314 314 317 323 343 331
316 303 295 296 307 276 282 263 23 38 28 8 1 74 93 88 171 145 146 175 159 153 166 156 153 135 130 129 114 97 81 182 81 70 3 320 2 3 345 326 320 312 302 308 308 310 314 318 311
301 291 311 292 316 332 318 341 76 32 20 2 337 334 152 182 154 142 159 179 153 144 143 144 125 128 151 147 139 140 120 45 27 20 338 355 7 327 334 321 306 301 299 302 303 312 317 320 300
281 48 271 353 322 301 279 304 42 41 7 14 338 329 278 137 122 186 159 124 123 132 121 119 139 155 160 156 170 152 137 156 94 280 254 277 289 299 294 300 303 298 297 300 301 308 312 308 304
315 305 330 217 261 266 300 290 251 292 131 7 358 313 300 144 156 138 151 136 139 123 129 133 142 150 155 180 176 162 140 118 22 308 275 273 279 282 283 292 295 293 295 296 300 303 302 308 312
258 322 348 307 301 264 325 324 43 43 38 89 268 3 29 14 21 162 132 136 147 151 149 167 165 156 160 163 136 154 152 135 281 292 279 272 280 278 278 280 290 296 292 293 294 290 290 296 298